^^
Station Historical Data
Daily Summary for January 17, 2017 Units:  English    Metric   Both
« Previous Day
Next Day »
Daily Weekly Monthly Yearly Custom
  High: Low: Average:
Temperature: 38.3 °F 34.3 °F 36 °F
Dew Point: 35.4 °F 27.0 °F 32.2 °F
Humidity: 95 % 72 % 86 %
Wind Speed: 4.0 mph 0.0 mph 0.8 mph
Wind Gust: 6.9 mph - -
Wind:- - NE
Pressure: 30.32 in 29.95 in -
Precipitation: 0.29 in    
Historical Graphs
 
 
Tabular Data for January 17, 2017
Time Temperature Dew Point Pressure Wind Wind Speed Wind Gust Humidity Rainfall Rate (Hourly) solar Conditions
00:03 35.5 °F 27.4 °F 30.32 in Calm     72 % 0.00 in 0.0 W/m2 RA
00:08 35.4 °F 27.3 °F 30.32 in Calm     72 % 0.00 in 0.0 W/m2 RA
00:13 35.4 °F 27.3 °F 30.32 in Calm     72 % 0.00 in 0.0 W/m2 CLR
00:18 35.4 °F 27.3 °F 30.32 in Calm     72 % 0.00 in 0.0 W/m2 CLR
00:23 35.4 °F 27.3 °F 30.32 in Calm     72 % 0.00 in 0.0 W/m2 CLR
00:28 35.5 °F 27.4 °F 30.32 in Calm     72 % 0.00 in 0.0 W/m2 CLR
00:33 35.6 °F 27.5 °F 30.31 in Calm     72 % 0.00 in 0.0 W/m2 CLR
00:38 35.5 °F 27.4 °F 30.31 in Calm     72 % 0.00 in 0.0 W/m2 CLR
00:43 35.4 °F 27.3 °F 30.31 in Calm     72 % 0.00 in 0.0 W/m2 CLR
00:48 35.4 °F 27.3 °F 30.31 in Calm     72 % 0.00 in 0.0 W/m2 CLR
00:53 35.3 °F 27.2 °F 30.30 in Calm     72 % 0.00 in 0.0 W/m2 CLR
00:58 35.3 °F 27.2 °F 30.30 in Calm     72 % 0.00 in 0.0 W/m2 CLR
01:03 35.2 °F 27.1 °F 30.30 in Calm     72 % 0.00 in 0.0 W/m2 CLR
01:08 35.2 °F 27.1 °F 30.30 in Calm     72 % 0.00 in 0.0 W/m2 CLR
01:13 35.2 °F 27.1 °F 30.30 in Calm     72 % 0.00 in 0.0 W/m2 CLR
01:18 35.2 °F 27.1 °F 30.30 in Calm     72 % 0.00 in 0.0 W/m2 CLR
01:23 35.1 °F 27.0 °F 30.30 in Calm     72 % 0.00 in 0.0 W/m2 CLR
01:28 35.1 °F 27.3 °F 30.29 in Calm     73 % 0.00 in 0.0 W/m2 CLR
01:33 35.1 °F 27.3 °F 30.29 in Calm     73 % 0.00 in 0.0 W/m2 CLR
01:38 35.2 °F 27.4 °F 30.28 in Calm     73 % 0.00 in 0.0 W/m2 CLR
01:43 35.2 °F 27.4 °F 30.29 in Calm     73 % 0.00 in 0.0 W/m2 CLR
01:48 35.2 °F 27.4 °F 30.29 in Calm     73 % 0.00 in 0.0 W/m2 CLR
01:53 35.2 °F 27.4 °F 30.28 in Calm     73 % 0.00 in 0.0 W/m2 CLR
01:58 35.2 °F 27.4 °F 30.29 in Calm     73 % 0.00 in 0.0 W/m2 CLR
02:03 35.2 °F 27.4 °F 30.29 in Calm     73 % 0.00 in 0.0 W/m2 CLR
02:08 35.1 °F 27.3 °F 30.29 in Calm     73 % 0.00 in 0.0 W/m2 CLR
02:13 35.2 °F 27.7 °F 30.29 in Calm     74 % 0.00 in 0.0 W/m2 CLR
02:18 35.2 °F 27.4 °F 30.29 in Calm     73 % 0.00 in 0.0 W/m2 CLR
02:23 35.3 °F 27.8 °F 30.29 in Calm     74 % 0.00 in 0.0 W/m2 CLR
02:28 35.3 °F 27.8 °F 30.29 in Calm     74 % 0.00 in 0.0 W/m2 CLR
02:33 35.2 °F 27.7 °F 30.29 in Calm     74 % 0.00 in 0.0 W/m2 CLR
02:38 35.3 °F 27.8 °F 30.29 in Calm     74 % 0.00 in 0.0 W/m2 CLR
02:43 35.3 °F 27.8 °F 30.29 in Calm     74 % 0.00 in 0.0 W/m2 CLR
02:48 35.3 °F 27.8 °F 30.29 in Calm     74 % 0.00 in 0.0 W/m2 CLR
02:53 35.2 °F 27.7 °F 30.29 in Calm     74 % 0.00 in 0.0 W/m2 CLR
02:58 35.2 °F 27.7 °F 30.29 in Calm     74 % 0.00 in 0.0 W/m2 CLR
03:03 35.2 °F 27.7 °F 30.28 in Calm     74 % 0.00 in 0.0 W/m2 CLR
03:09 35.3 °F 27.5 °F 30.28 in Calm     73 % 0.00 in 0.0 W/m2 CLR
03:14 35.3 °F 27.5 °F 30.28 in Calm     73 % 0.00 in 0.0 W/m2 CLR
03:19 35.3 °F 27.5 °F 30.28 in Calm     73 % 0.00 in 0.0 W/m2 CLR
03:24 35.4 °F 27.6 °F 30.27 in Calm     73 % 0.00 in 0.0 W/m2 CLR
03:29 35.4 °F 27.6 °F 30.27 in Calm     73 % 0.00 in 0.0 W/m2 CLR
03:34 35.4 °F 27.6 °F 30.27 in Calm     73 % 0.00 in 0.0 W/m2 CLR
03:39 35.4 °F 27.6 °F 30.26 in Calm     73 % 0.00 in 0.0 W/m2 CLR
03:44 35.4 °F 27.9 °F 30.26 in Calm     74 % 0.00 in 0.0 W/m2 CLR
03:49 35.3 °F 27.8 °F 30.26 in Calm     74 % 0.00 in 0.0 W/m2 CLR
03:55 35.3 °F 27.8 °F 30.26 in Calm     74 % 0.00 in 0.0 W/m2 CLR
04:00 35.2 °F 27.7 °F 30.26 in Calm     74 % 0.00 in 0.0 W/m2 CLR
04:05 35.1 °F 27.6 °F 30.25 in Calm     74 % 0.00 in 0.0 W/m2 CLR
04:10 35.1 °F 27.6 °F 30.25 in Calm     74 % 0.00 in 0.0 W/m2 CLR
04:15 35.2 °F 27.7 °F 30.25 in Calm     74 % 0.00 in 0.0 W/m2 CLR
04:20 35.2 °F 27.7 °F 30.25 in Calm     74 % 0.00 in 0.0 W/m2 CLR
04:25 35.2 °F 28.1 °F 30.25 in Calm     75 % 0.00 in 0.0 W/m2 CLR
04:30 35.3 °F 28.2 °F 30.25 in Calm     75 % 0.00 in 0.0 W/m2 CLR
04:35 35.3 °F 27.8 °F 30.25 in Calm     74 % 0.00 in 0.0 W/m2 CLR
04:40 35.3 °F 28.2 °F 30.25 in Calm     75 % 0.00 in 0.0 W/m2 CLR
04:45 35.4 °F 28.3 °F 30.25 in Calm     75 % 0.00 in 0.0 W/m2 CLR
04:50 35.4 °F 28.3 °F 30.25 in Calm     75 % 0.00 in 0.0 W/m2 CLR
04:55 35.5 °F 28.4 °F 30.25 in Calm     75 % 0.00 in 0.0 W/m2 CLR
05:00 35.5 °F 28.0 °F 30.25 in Calm     74 % 0.00 in 0.0 W/m2 CLR
05:05 35.5 °F 28.0 °F 30.24 in Calm     74 % 0.00 in 0.0 W/m2 CLR
05:10 35.4 °F 27.9 °F 30.24 in Calm     74 % 0.00 in 0.0 W/m2 CLR
05:15 35.4 °F 27.9 °F 30.24 in Calm     74 % 0.00 in 0.0 W/m2 CLR
05:20 35.5 °F 28.4 °F 30.24 in Calm     75 % 0.00 in 0.0 W/m2 CLR
05:25 35.6 °F 28.5 °F 30.24 in Calm     75 % 0.00 in 0.0 W/m2 CLR
05:30 35.6 °F 28.5 °F 30.24 in Calm     75 % 0.00 in 0.0 W/m2 CLR
05:35 35.6 °F 28.5 °F 30.24 in Calm     75 % 0.00 in 0.0 W/m2 CLR
05:40 35.6 °F 28.5 °F 30.23 in Calm     75 % 0.00 in 0.0 W/m2 CLR
05:45 35.7 °F 28.6 °F 30.23 in Calm     75 % 0.00 in 0.0 W/m2 CLR
05:50 35.6 °F 28.5 °F 30.23 in Calm     75 % 0.00 in 0.0 W/m2 CLR
05:55 35.5 °F 28.4 °F 30.24 in Calm     75 % 0.00 in 0.0 W/m2 CLR
06:00 35.5 °F 28.4 °F 30.24 in Calm     75 % 0.00 in 0.0 W/m2 CLR
06:05 35.5 °F 28.4 °F 30.23 in Calm     75 % 0.00 in 0.0 W/m2 CLR
06:11 35.5 °F 28.7 °F 30.23 in Calm     76 % 0.00 in 0.0 W/m2 CLR
06:16 35.5 °F 28.7 °F 30.23 in Calm     76 % 0.00 in 0.0 W/m2 CLR
06:21 35.3 °F 28.8 °F 30.24 in Calm     77 % 0.00 in 0.0 W/m2 CLR
06:26 35.2 °F 29.0 °F 30.24 in Calm     78 % 0.00 in 0.0 W/m2 CLR
06:31 35.1 °F 29.2 °F 30.23 in Calm     79 % 0.03 in 0.0 W/m2 RA
06:36 34.9 °F 29.7 °F 30.23 in Calm     81 % 0.03 in 0.0 W/m2 RA
06:41 34.6 °F 29.7 °F 30.22 in Calm     82 % 0.03 in 0.0 W/m2
06:46 34.6 °F 30.0 °F 30.22 in Calm     83 % 0.03 in 0.0 W/m2
06:51 34.5 °F 30.2 °F 30.22 in Calm     84 % 0.03 in 0.0 W/m2
06:56 34.5 °F 30.5 °F 30.22 in Calm     85 % 0.03 in 0.0 W/m2
07:01 34.4 °F 30.4 °F 30.21 in SW 1.0 mph 2.3 mph 85 % 0.03 in 0.0 W/m2
07:06 34.4 °F 30.4 °F 30.21 in Calm     85 % 0.03 in 0.0 W/m2
07:11 34.4 °F 30.4 °F 30.22 in Calm     85 % 0.03 in 0.0 W/m2
07:16 34.5 °F 30.7 °F 30.22 in Calm     86 % 0.03 in 0.0 W/m2
07:21 34.3 °F 30.5 °F 30.22 in Calm     86 % 0.03 in 0.0 W/m2
07:26 34.5 °F 30.7 °F 30.22 in Calm     86 % 0.03 in 0.0 W/m2
07:31 34.5 °F 31.0 °F 30.22 in Calm     87 % 0.00 in 0.0 W/m2 CLR
07:36 34.5 °F 31.0 °F 30.22 in WSW 0.1 mph 1.2 mph 87 % 0.00 in 5.0 W/m2 CLR
07:41 34.5 °F 31.0 °F 30.22 in Calm     87 % 0.00 in 7.0 W/m2 CLR
07:46 34.4 °F 30.9 °F 30.22 in WSW 1.1 mph 2.3 mph 87 % 0.00 in 11.0 W/m2 CLR
07:51 34.4 °F 30.9 °F 30.22 in Calm     87 % 0.00 in 14.0 W/m2 FEW
07:56 34.5 °F 31.3 °F 30.22 in Calm     88 % 0.00 in 16.0 W/m2 SCT
08:01 34.6 °F 31.4 °F 30.22 in Calm     88 % 0.00 in 16.0 W/m2 BKN
08:06 34.7 °F 31.5 °F 30.22 in Calm     88 % 0.00 in 11.0 W/m2 CLR
08:11 34.7 °F 31.8 °F 30.22 in Calm     89 % 0.00 in 16.0 W/m2 BKN
08:16 34.8 °F 31.9 °F 30.23 in Calm     89 % 0.00 in 18.0 W/m2 BKN
08:21 34.7 °F 31.8 °F 30.23 in Calm     89 % 0.00 in 21.0 W/m2 BKN
08:26 34.8 °F 31.9 °F 30.24 in Calm     89 % 0.00 in 25.0 W/m2 BKN
08:31 34.8 °F 31.9 °F 30.23 in West 1.3 mph 2.3 mph 89 % 0.00 in 30.0 W/m2 BKN
08:36 34.8 °F 31.9 °F 30.23 in Calm     89 % 0.00 in 28.0 W/m2 BKN
08:41 35.0 °F 32.1 °F 30.23 in Calm     89 % 0.00 in 32.0 W/m2 BKN
08:46 35.0 °F 32.1 °F 30.23 in Calm     89 % 0.00 in 35.0 W/m2 BKN
08:51 35.1 °F 32.2 °F 30.23 in Calm     89 % 0.00 in 44.0 W/m2 BKN
08:56 35.2 °F 32.3 °F 30.23 in WNW 1.8 mph 3.0 mph 89 % 0.00 in 42.0 W/m2 BKN
09:01 35.1 °F 32.2 °F 30.23 in North 2.4 mph 3.5 mph 89 % 0.00 in 39.0 W/m2 OVC
09:06 35.2 °F 32.3 °F 30.23 in North 1.5 mph 3.5 mph 89 % 0.00 in 40.0 W/m2 OVC
09:11 35.2 °F 32.3 °F 30.23 in Calm     89 % 0.00 in 40.0 W/m2 OVC
09:16 35.3 °F 32.4 °F 30.23 in Calm     89 % 0.00 in 40.0 W/m2 OVC
09:21 35.2 °F 32.3 °F 30.23 in North 0.9 mph 2.3 mph 89 % 0.00 in 42.0 W/m2 OVC
09:26 35.3 °F 32.4 °F 30.23 in Calm     89 % 0.00 in 40.0 W/m2 OVC
09:31 35.3 °F 32.4 °F 30.22 in North 0.4 mph 2.3 mph 89 % 0.00 in 40.0 W/m2 OVC
09:36 35.5 °F 32.6 °F 30.22 in North 1.7 mph 2.3 mph 89 % 0.00 in 42.0 W/m2 OVC
09:41 35.6 °F 32.4 °F 30.22 in Calm   1.2 mph 88 % 0.00 in 46.0 W/m2 OVC
09:46 35.6 °F 32.4 °F 30.22 in Calm   2.3 mph 88 % 0.00 in 44.0 W/m2 OVC
09:52 35.7 °F 32.8 °F 30.22 in Calm     89 % 0.00 in 46.0 W/m2 OVC
09:57 35.6 °F 32.7 °F 30.22 in Calm     89 % 0.01 in 42.0 W/m2 RA
10:02 35.6 °F 32.7 °F 30.22 in Calm     89 % 0.01 in 49.0 W/m2 RA
10:07 35.8 °F 32.9 °F 30.22 in Calm     89 % 0.01 in 47.0 W/m2 OVC
10:12 35.6 °F 32.7 °F 30.22 in Calm     89 % 0.01 in 39.0 W/m2 OVC
10:17 35.7 °F 32.8 °F 30.22 in Calm     89 % 0.01 in 39.0 W/m2 OVC
10:22 35.6 °F 32.7 °F 30.22 in Calm     89 % 0.01 in 30.0 W/m2 OVC
10:27 35.7 °F 32.8 °F 30.22 in Calm     89 % 0.01 in 32.0 W/m2 OVC
10:32 35.7 °F 32.8 °F 30.22 in Calm     89 % 0.01 in 35.0 W/m2 OVC
10:37 35.8 °F 32.9 °F 30.21 in Calm     89 % 0.02 in 39.0 W/m2 RA
10:42 35.8 °F 32.9 °F 30.20 in Calm     89 % 0.02 in 47.0 W/m2 RA
10:47 35.9 °F 33.0 °F 30.20 in Calm     89 % 0.02 in 53.0 W/m2 OVC
10:52 36.0 °F 33.4 °F 30.20 in Calm     90 % 0.02 in 44.0 W/m2 OVC
10:57 35.8 °F 32.9 °F 30.20 in NNE 0.1 mph 2.0 mph 89 % 0.01 in 42.0 W/m2 OVC
11:02 35.8 °F 32.9 °F 30.20 in Calm     89 % 0.02 in 39.0 W/m2 RA
11:07 35.9 °F 33.0 °F 30.19 in Calm     89 % 0.02 in 44.0 W/m2 RA
11:12 36.0 °F 33.1 °F 30.18 in Calm     89 % 0.02 in 40.0 W/m2 OVC
11:17 36.1 °F 33.2 °F 30.18 in NNE 1.2 mph 2.3 mph 89 % 0.02 in 39.0 W/m2 OVC
11:22 35.9 °F 33.0 °F 30.17 in Calm     89 % 0.02 in 51.0 W/m2 OVC
11:27 35.9 °F 33.0 °F 30.18 in Calm     89 % 0.02 in 37.0 W/m2 OVC
11:32 35.9 °F 33.0 °F 30.18 in Calm     89 % 0.02 in 30.0 W/m2 OVC
11:37 35.9 °F 33.0 °F 30.18 in Calm     89 % 0.01 in 25.0 W/m2 OVC
11:42 36.0 °F 33.1 °F 30.18 in Calm     89 % 0.01 in 21.0 W/m2 OVC
11:47 36.1 °F 33.2 °F 30.17 in ESE 0.2 mph 1.2 mph 89 % 0.01 in 25.0 W/m2 OVC
11:52 36.1 °F 33.2 °F 30.16 in Calm     89 % 0.01 in 35.0 W/m2 OVC
11:57 36.0 °F 33.1 °F 30.15 in Calm     89 % 0.01 in 54.0 W/m2 OVC
12:02 36.1 °F 33.2 °F 30.14 in Calm     89 % 0.00 in 83.0 W/m2 OVC
12:07 36.2 °F 33.3 °F 30.13 in East 1.7 mph 2.3 mph 89 % 0.00 in 98.0 W/m2 OVC
12:12 36.3 °F 33.4 °F 30.13 in Calm     89 % 0.00 in 105.0 W/m2 OVC
12:17 36.3 °F 33.4 °F 30.14 in NE 0.9 mph 4.0 mph 89 % 0.00 in 72.0 W/m2 OVC
12:22 36.4 °F 33.5 °F 30.14 in Calm     89 % 0.00 in 42.0 W/m2 OVC
12:27 36.4 °F 33.5 °F 30.12 in Calm   2.3 mph 89 % 0.00 in 72.0 W/m2 OVC
12:32 36.5 °F 33.6 °F 30.13 in NNE 2.7 mph 3.5 mph 89 % 0.00 in 62.0 W/m2 OVC
12:37 36.6 °F 33.7 °F 30.13 in NNE 2.1 mph 3.5 mph 89 % 0.00 in 46.0 W/m2 OVC
12:42 36.7 °F 33.8 °F 30.13 in Calm     89 % 0.00 in 81.0 W/m2 OVC
12:47 36.9 °F 34.0 °F 30.13 in NNE 3.1 mph 4.0 mph 89 % 0.00 in 56.0 W/m2 OVC
12:52 36.8 °F 33.9 °F 30.12 in NNE 3.5 mph 4.6 mph 89 % 0.00 in 37.0 W/m2 OVC
12:57 36.7 °F 33.8 °F 30.12 in NNE 0.6 mph 2.3 mph 89 % 0.00 in 46.0 W/m2 OVC
13:02 36.6 °F 33.7 °F 30.13 in NNE 0.6 mph 2.3 mph 89 % 0.00 in 54.0 W/m2 OVC
13:07 36.5 °F 33.6 °F 30.11 in NE 1.9 mph 3.5 mph 89 % 0.00 in 76.0 W/m2 OVC
13:12 36.5 °F 33.6 °F 30.11 in ENE 2.0 mph 3.5 mph 89 % 0.00 in 97.0 W/m2 OVC
13:17 36.8 °F 33.9 °F 30.10 in NE 0.7 mph 3.5 mph 89 % 0.00 in 114.0 W/m2 BKN
13:22 36.8 °F 33.9 °F 30.10 in East 0.4 mph 3.5 mph 89 % 0.00 in 102.0 W/m2 OVC
13:27 36.7 °F 33.8 °F 30.08 in NE 1.3 mph 2.3 mph 89 % 0.00 in 84.0 W/m2 OVC
13:32 36.9 °F 34.0 °F 30.08 in ENE 2.2 mph 3.5 mph 89 % 0.00 in 179.0 W/m2 BKN
13:37 37.0 °F 34.1 °F 30.09 in East 1.2 mph 3.5 mph 89 % 0.00 in 141.0 W/m2 BKN
13:42 37.2 °F 34.3 °F 30.09 in Calm     89 % 0.00 in 116.0 W/m2 BKN
13:47 37.3 °F 34.4 °F 30.09 in ENE 0.8 mph 2.3 mph 89 % 0.00 in 105.0 W/m2 BKN
13:52 37.3 °F 34.4 °F 30.09 in Calm   2.3 mph 89 % 0.00 in 91.0 W/m2 BKN
13:58 37.6 °F 34.7 °F 30.09 in ENE 0.6 mph 3.5 mph 89 % 0.00 in 77.0 W/m2 OVC
14:02 37.5 °F 34.6 °F 30.10 in Calm   1.2 mph 89 % 0.00 in 62.0 W/m2 OVC
14:08 37.4 °F 34.5 °F 30.09 in NE 0.6 mph 1.2 mph 89 % 0.00 in 69.0 W/m2 OVC
14:13 37.5 °F 34.6 °F 30.08 in NE 3.4 mph 6.9 mph 89 % 0.00 in 76.0 W/m2 OVC
14:18 37.6 °F 34.7 °F 30.08 in ENE 1.4 mph 4.6 mph 89 % 0.00 in 100.0 W/m2 BKN
14:23 37.6 °F 34.7 °F 30.08 in NE 2.9 mph 4.0 mph 89 % 0.00 in 58.0 W/m2 OVC
14:28 37.7 °F 34.8 °F 30.08 in NE 0.6 mph 2.3 mph 89 % 0.00 in 62.0 W/m2 OVC
14:33 37.8 °F 34.8 °F 30.08 in Calm   1.2 mph 89 % 0.00 in 58.0 W/m2 OVC
14:38 37.7 °F 34.8 °F 30.08 in ENE 1.3 mph 3.0 mph 89 % 0.00 in 39.0 W/m2 OVC
14:43 37.7 °F 34.8 °F 30.08 in Calm     89 % 0.00 in 37.0 W/m2 OVC
14:48 37.7 °F 34.8 °F 30.08 in Calm     89 % 0.00 in 32.0 W/m2 OVC
14:53 37.9 °F 34.9 °F 30.08 in ENE 0.1 mph 2.3 mph 89 % 0.00 in 23.0 W/m2 OVC
14:58 37.9 °F 34.9 °F 30.07 in ENE 0.2 mph 2.0 mph 89 % 0.00 in 40.0 W/m2 OVC
15:03 37.9 °F 34.9 °F 30.06 in Calm   1.2 mph 89 % 0.00 in 42.0 W/m2 OVC
15:08 37.9 °F 34.9 °F 30.06 in Calm     89 % 0.00 in 47.0 W/m2 OVC
15:13 38.1 °F 35.1 °F 30.06 in NE 0.7 mph 1.2 mph 89 % 0.00 in 44.0 W/m2 OVC
15:18 38.2 °F 35.2 °F 30.06 in NE 2.7 mph 4.6 mph 89 % 0.00 in 33.0 W/m2 OVC
15:23 38.2 °F 35.2 °F 30.06 in NNE 2.5 mph 3.5 mph 89 % 0.00 in 40.0 W/m2 OVC
15:28 38.3 °F 35.3 °F 30.06 in NE 0.1 mph 3.5 mph 89 % 0.00 in 37.0 W/m2 OVC
15:33 38.3 °F 35.3 °F 30.06 in NNE 1.1 mph 3.5 mph 89 % 0.00 in 18.0 W/m2 OVC
15:38 38.1 °F 35.1 °F 30.06 in NE 2.5 mph 3.5 mph 89 % 0.00 in 19.0 W/m2 OVC
15:43 38.1 °F 35.1 °F 30.05 in NE 0.5 mph 2.3 mph 89 % 0.00 in 16.0 W/m2 OVC
15:48 37.9 °F 34.9 °F 30.05 in NE 0.2 mph 1.2 mph 89 % 0.00 in 11.0 W/m2 OVC
15:53 37.9 °F 34.9 °F 30.05 in NE 1.3 mph 3.5 mph 89 % 0.00 in 11.0 W/m2 OVC
15:58 37.9 °F 34.9 °F 30.05 in NE 3.1 mph 5.8 mph 89 % 0.00 in 11.0 W/m2 OVC
16:03 37.9 °F 34.9 °F 30.05 in NNE 2.5 mph 3.5 mph 89 % 0.00 in 7.0 W/m2 OVC
16:08 38.0 °F 35.0 °F 30.06 in NNE 1.0 mph 3.5 mph 89 % 0.00 in 0.0 W/m2 OVC
16:13 38.0 °F 35.0 °F 30.06 in NNE 3.5 mph 4.6 mph 89 % 0.00 in 0.0 W/m2 OVC
16:18 37.9 °F 34.9 °F 30.05 in NE 1.1 mph 3.5 mph 89 % 0.01 in 14.0 W/m2 RA
16:23 37.9 °F 35.2 °F 30.06 in NNE 2.6 mph 3.5 mph 90 % 0.04 in 12.0 W/m2 RA
16:28 37.8 °F 35.1 °F 30.06 in NNE 0.1 mph 1.2 mph 90 % 0.05 in 5.0 W/m2 RA
16:33 37.7 °F 35.0 °F 30.05 in Calm     90 % 0.05 in 11.0 W/m2 RA
16:38 37.7 °F 35.0 °F 30.05 in Calm   1.2 mph 90 % 0.06 in 0.0 W/m2 RA
16:43 37.6 °F 34.9 °F 30.06 in Calm     90 % 0.06 in 0.0 W/m2 RA
16:48 37.6 °F 35.2 °F 30.06 in Calm     91 % 0.06 in 0.0 W/m2
16:53 37.6 °F 35.2 °F 30.06 in Calm     91 % 0.06 in 0.0 W/m2 OVC
16:58 37.5 °F 35.1 °F 30.05 in NE 1.7 mph 3.5 mph 91 % 0.06 in 0.0 W/m2 OVC
17:03 37.3 °F 34.9 °F 30.05 in Calm     91 % 0.08 in 0.0 W/m2 RA
17:08 37.2 °F 34.8 °F 30.05 in NE 0.9 mph 2.3 mph 91 % 0.10 in 0.0 W/m2 RA
17:14 37.2 °F 34.8 °F 30.05 in NNE 2.4 mph 3.5 mph 91 % 0.12 in 0.0 W/m2 RA
17:19 37.1 °F 34.7 °F 30.06 in NNW 1.8 mph 4.0 mph 91 % 0.10 in 0.0 W/m2 RA
17:24 37.1 °F 35.0 °F 30.05 in NNW 0.3 mph 2.3 mph 92 % 0.07 in 0.0 W/m2
17:29 36.8 °F 34.4 °F 30.05 in NNE 3.6 mph 4.6 mph 91 % 0.07 in 0.0 W/m2 RA
17:34 36.6 °F 34.2 °F 30.05 in NNE 1.5 mph 5.0 mph 91 % 0.07 in 0.0 W/m2 RA
17:39 36.5 °F 34.4 °F 30.05 in NNE 2.3 mph 4.6 mph 92 % 0.06 in 0.0 W/m2
17:44 36.3 °F 34.2 °F 30.05 in NNE 3.0 mph 5.8 mph 92 % 0.06 in 0.0 W/m2
17:49 36.3 °F 34.2 °F 30.04 in Calm   3.5 mph 92 % 0.06 in 0.0 W/m2
17:54 36.3 °F 34.2 °F 30.04 in NNE 0.1 mph 2.0 mph 92 % 0.06 in 0.0 W/m2
17:59 36.3 °F 34.2 °F 30.04 in NE 1.4 mph 3.5 mph 92 % 0.06 in 0.0 W/m2
18:04 36.3 °F 34.2 °F 30.04 in NE 0.9 mph 3.5 mph 92 % 0.05 in 0.0 W/m2 RA
18:09 36.4 °F 34.3 °F 30.04 in NNE 3.0 mph 3.0 mph 92 % 0.05 in 0.0 W/m2 RA
18:14 36.3 °F 34.2 °F 30.03 in NNE 0.6 mph 3.5 mph 92 % 0.07 in 0.0 W/m2 RA
18:19 36.3 °F 34.2 °F 30.03 in NE 1.8 mph 3.5 mph 92 % 0.08 in 0.0 W/m2 RA
18:24 36.3 °F 34.5 °F 30.03 in NNE 2.9 mph 4.6 mph 93 % 0.09 in 0.0 W/m2 RA
18:29 36.4 °F 34.6 °F 30.03 in NNE 2.4 mph 4.0 mph 93 % 0.08 in 0.0 W/m2 RA
18:34 36.4 °F 34.6 °F 30.03 in NNE 2.3 mph 3.5 mph 93 % 0.08 in 0.0 W/m2
18:39 36.4 °F 34.6 °F 30.03 in NNE 1.9 mph 3.5 mph 93 % 0.08 in 0.0 W/m2
18:44 36.3 °F 34.5 °F 30.03 in NNE 0.7 mph 2.3 mph 93 % 0.09 in 0.0 W/m2 RA
18:49 36.2 °F 34.4 °F 30.03 in NNE 1.3 mph 3.5 mph 93 % 0.09 in 0.0 W/m2 RA
18:54 36.2 °F 34.4 °F 30.03 in NNE 0.7 mph 3.5 mph 93 % 0.09 in 0.0 W/m2
18:59 36.1 °F 34.3 °F 30.03 in NNE 0.3 mph 3.0 mph 93 % 0.09 in 0.0 W/m2
19:04 36.1 °F 34.3 °F 30.03 in NNE 1.4 mph 2.3 mph 93 % 0.08 in 0.0 W/m2 RA
19:09 36.1 °F 34.3 °F 30.03 in Calm     93 % 0.06 in 0.0 W/m2 RA
19:14 36.1 °F 34.3 °F 30.04 in NNE 0.5 mph 2.3 mph 93 % 0.04 in 0.0 W/m2
19:19 36.1 °F 34.3 °F 30.03 in NNE 0.6 mph 2.3 mph 93 % 0.03 in 0.0 W/m2
19:24 36.1 °F 34.3 °F 30.03 in NNE 0.7 mph 2.3 mph 93 % 0.02 in 0.0 W/m2
19:29 36.1 °F 34.3 °F 30.02 in NNE 3.0 mph 4.6 mph 93 % 0.02 in 0.0 W/m2
19:34 36.1 °F 34.3 °F 30.02 in NNE 3.8 mph 4.6 mph 93 % 0.02 in 0.0 W/m2
19:39 36.1 °F 34.3 °F 30.01 in NNE 1.0 mph 3.5 mph 93 % 0.02 in 0.0 W/m2
19:44 36.1 °F 34.3 °F 30.01 in NNE 3.5 mph 5.0 mph 93 % 0.01 in 0.0 W/m2
19:49 36.1 °F 34.3 °F 30.01 in NNE 1.6 mph 3.5 mph 93 % 0.01 in 0.0 W/m2
19:54 36.2 °F 34.6 °F 30.01 in NNE 2.7 mph 3.5 mph 94 % 0.01 in 0.0 W/m2
19:59 36.1 °F 34.5 °F 30.02 in NNE 4.0 mph 5.8 mph 94 % 0.01 in 0.0 W/m2
20:04 36.1 °F 34.5 °F 30.01 in NNE 2.5 mph 3.5 mph 94 % 0.00 in 0.0 W/m2 CLR
20:09 36.1 °F 34.5 °F 30.02 in NNE 3.0 mph 3.5 mph 94 % 0.00 in 0.0 W/m2 CLR
20:14 36.1 °F 34.5 °F 30.01 in NNE 2.9 mph 3.5 mph 94 % 0.00 in 0.0 W/m2 CLR
20:19 36.1 °F 34.5 °F 30.01 in NNE 2.5 mph 3.5 mph 94 % 0.00 in 0.0 W/m2 CLR
20:24 36.1 °F 34.5 °F 30.02 in NNE 2.3 mph 3.5 mph 94 % 0.00 in 0.0 W/m2 CLR
20:25 36.1 °F 34.5 °F 30.02 in NNE 1.8 mph 3.5 mph 94 % 0.00 in 0.0 W/m2 CLR
20:30 36.1 °F 34.5 °F 30.02 in Calm     94 % 0.00 in 0.0 W/m2 CLR
20:35 36.0 °F 34.4 °F 30.02 in NNE 2.7 mph 3.5 mph 94 % 0.00 in 0.0 W/m2 CLR
20:40 36.0 °F 34.4 °F 30.01 in NNE 2.4 mph 3.5 mph 94 % 0.00 in 0.0 W/m2 CLR
20:45 36.0 °F 34.4 °F 30.00 in NE 2.7 mph 3.5 mph 94 % 0.00 in 0.0 W/m2 CLR
20:50 36.0 °F 34.4 °F 30.01 in NE 2.7 mph 5.0 mph 94 % 0.00 in 0.0 W/m2 CLR
20:55 36.0 °F 34.4 °F 30.01 in NE 3.1 mph 3.5 mph 94 % 0.00 in 0.0 W/m2 CLR
21:00 36.0 °F 34.4 °F 30.01 in NNE 2.7 mph 4.0 mph 94 % 0.00 in 0.0 W/m2 CLR
21:05 36.1 °F 34.5 °F 30.01 in NNE 1.7 mph 3.5 mph 94 % 0.00 in 0.0 W/m2 CLR
21:10 36.1 °F 34.5 °F 30.00 in NNE 3.6 mph 4.6 mph 94 % 0.00 in 0.0 W/m2 CLR
21:15 36.1 °F 34.5 °F 30.00 in NNE 2.7 mph 4.6 mph 94 % 0.00 in 0.0 W/m2 CLR
21:20 36.2 °F 34.6 °F 29.99 in NE 2.6 mph 3.5 mph 94 % 0.00 in 0.0 W/m2 CLR
21:25 36.2 °F 34.6 °F 29.99 in NNE 1.7 mph 4.0 mph 94 % 0.00 in 0.0 W/m2 CLR
21:30 36.2 °F 34.6 °F 29.99 in NE 0.6 mph 2.3 mph 94 % 0.00 in 0.0 W/m2 CLR
21:35 36.3 °F 34.7 °F 29.99 in NE 1.6 mph 3.5 mph 94 % 0.00 in 0.0 W/m2 CLR
21:40 36.3 °F 34.7 °F 29.99 in Calm   1.2 mph 94 % 0.00 in 0.0 W/m2 CLR
21:46 36.3 °F 34.7 °F 29.99 in NNE 0.3 mph 3.5 mph 94 % 0.00 in 0.0 W/m2 CLR
21:51 36.3 °F 34.7 °F 29.99 in Calm   1.2 mph 94 % 0.00 in 0.0 W/m2 CLR
21:56 36.3 °F 34.7 °F 29.99 in Calm   2.3 mph 94 % 0.00 in 0.0 W/m2 CLR
22:01 36.3 °F 34.7 °F 30.00 in NNE 0.5 mph 2.3 mph 94 % 0.00 in 0.0 W/m2 CLR
22:06 36.4 °F 34.8 °F 30.00 in NNW 1.6 mph 3.5 mph 94 % 0.00 in 0.0 W/m2 CLR
22:11 36.3 °F 34.7 °F 29.99 in North 2.6 mph 4.6 mph 94 % 0.00 in 0.0 W/m2 CLR
22:16 36.3 °F 34.7 °F 30.00 in NNE 1.1 mph 3.5 mph 94 % 0.00 in 0.0 W/m2 CLR
22:21 36.3 °F 34.7 °F 29.98 in NNE 3.4 mph 4.6 mph 94 % 0.00 in 0.0 W/m2 CLR
22:26 36.3 °F 34.7 °F 29.99 in NNE 1.9 mph 4.6 mph 94 % 0.00 in 0.0 W/m2 CLR
22:31 36.3 °F 34.7 °F 29.99 in NNE 1.7 mph 3.5 mph 94 % 0.00 in 0.0 W/m2 CLR
22:36 36.2 °F 34.6 °F 29.98 in NNE 2.6 mph 4.0 mph 94 % 0.00 in 0.0 W/m2 CLR
22:41 36.3 °F 34.7 °F 29.98 in NNE 3.6 mph 4.6 mph 94 % 0.00 in 0.0 W/m2 CLR
22:46 36.3 °F 34.7 °F 29.97 in NNE 3.1 mph 4.0 mph 94 % 0.00 in 0.0 W/m2 CLR
22:51 36.4 °F 34.8 °F 29.98 in NNE 1.4 mph 3.5 mph 94 % 0.00 in 0.0 W/m2 CLR
22:56 36.4 °F 35.1 °F 29.97 in NNE 2.3 mph 3.5 mph 95 % 0.00 in 0.0 W/m2 CLR
23:01 36.5 °F 35.2 °F 29.97 in NNE 2.7 mph 4.0 mph 95 % 0.00 in 0.0 W/m2 CLR
23:06 36.5 °F 35.2 °F 29.98 in NE 0.8 mph 2.3 mph 95 % 0.00 in 0.0 W/m2 CLR
23:11 36.6 °F 35.3 °F 29.97 in NE 0.1 mph 1.2 mph 95 % 0.00 in 0.0 W/m2 CLR
23:16 36.6 °F 35.3 °F 29.97 in NE 0.4 mph 2.0 mph 95 % 0.00 in 0.0 W/m2 CLR
23:21 36.6 °F 35.3 °F 29.96 in NE 2.0 mph 3.5 mph 95 % 0.00 in 0.0 W/m2 CLR
23:26 36.6 °F 35.3 °F 29.96 in NNE 0.2 mph 2.3 mph 95 % 0.00 in 0.0 W/m2 CLR
23:31 36.7 °F 35.4 °F 29.95 in Calm     95 % 0.00 in 0.0 W/m2 CLR
23:36 36.7 °F 35.4 °F 29.95 in NNE 0.3 mph 2.3 mph 95 % 0.00 in 0.0 W/m2 CLR
23:41 36.7 °F 35.4 °F 29.95 in NNE 0.5 mph 2.0 mph 95 % 0.00 in 0.0 W/m2 CLR
23:46 36.7 °F 35.4 °F 29.95 in Calm     95 % 0.00 in 0.0 W/m2 CLR
23:51 36.7 °F 35.4 °F 29.96 in NNE 0.1 mph 2.3 mph 95 % 0.00 in 0.0 W/m2 CLR
23:56 36.7 °F 35.4 °F 29.95 in NNE 2.9 mph 3.5 mph 95 % 0.00 in 0.0 W/m2 CLR
Air Products Campus Weather
Compliments of Weather Underground - 3.5 mb